Notices

What's New in latest Release from April 7th, 2021:

- Updated Glossary, including Speed of Maximum Gust, and Total Hourly Precipitation

- Updated national and regional climate services offices contacts and prices information

- Addition of station inventory lists for 1981-2010, 1971-2000, and 1961-1990 Normals.

If you haven't already, please take our survey and provide feedback about our website: https://eccc.sondage-survey.ca/f/LanguageSelection.aspx?s=442ca660-fcf1-47c0-95a9-59707d6fd709

Hourly Data Report for December 29, 2019

SAINT JOHN A
NEW BRUNSWICK
Current Station Operator: NAVCAN

45°18'58.000" N
65°53'24.000" W
108.80 m
8104901
71609
YSJ

Download Data

Hourly Data (December 2019)
Hourly Data Report for December 29, 2019
TIME
LST
Temp Definition
°C
Dew Point Definition
°C
Rel Hum Definition
%
Precip. Amount Definition
mm

Wind Dir Definition
10's deg

Wind Spd Definition
km/h
Visibility Definition
km
Stn Press Definition
kPa
Hmdx Definition


Wind Chill Definition


Weather Definition


00:00 -0.4 -5.1 71   30 22 24.1 100.06   -6 LegendNANA
01:00 -0.3 -5.1 70   30 19 24.1 100.00   -5 LegendNANA
02:00 -0.1 -5.2 69   31 16 24.1 100.05   -5 Cloudy
03:00 -0.4 -4.7 73   32 19 24.1 100.16   -6 LegendNANA
04:00 -0.9 -5.5 71   31 23 24.1 100.18   -7 LegendNANA
05:00 -1.2 -5.5 72   32 23 24.1 100.17   -7 Cloudy
06:00 -1.7 -5.7 75   32 22 24.1 100.24   -8 LegendNANA
07:00 -1.9 -5.5 77   32 18 24.1 100.35   -7 LegendNANA
08:00 -2.7 -5.4 82   32 13 24.1 100.41   -7 Mainly Clear
09:00 -2.0 -5.1 79   30 16 24.1 100.53   -7 LegendNANA
10:00 -1.3 -5.8 71   34 23 24.1 100.55   -7 LegendNANA
11:00 -1.1 -6.6 66   35 26 24.1 100.59   -7 Mostly Cloudy
12:00 -0.9 -7.2 63   34 18 24.1 100.57   -6 LegendNANA
13:00 -1.0 -6.8 64   1 19 24.1 100.50   -6 LegendNANA
14:00 -0.8 -7.3 61   34 22 24.1 100.44   -7 Mostly Cloudy
15:00 -0.7 -7.0 63   30 18 24.1 100.51   -6 LegendNANA
16:00 -0.7 -6.5 65   30 18 24.1 100.53   -6 LegendNANA
17:00 -1.0 -5.8 70   32 24 24.1 100.52   -7 Cloudy
18:00 -1.2 -7.0 65   31 22 24.1 100.58   -7 LegendNANA
19:00 -1.6 -7.3 65   35 20 24.1 100.63   -7 LegendNANA
20:00 -2.7 -8.7 64   33 28 24.1 100.63   -10 Cloudy
21:00 -3.4 -9.8 62   33 21 24.1 100.67   -10 LegendNANA
22:00 -3.8 -9.5 65   33 25 24.1 100.67   -11 LegendNANA
23:00 -4.4 -9.8 66   33 17 24.1 100.66   -10 Mainly Clear

Notes on Data Quality.

Legend

  • E = Estimated
  • M = Missing
  • NA = Not Available*
  • [empty] = Indicates an unobserved value
Date modified: